{"data":{"norad_id":59465,"epoch":"2026-09-21T08:10:03.165888Z","epoch_age_seconds":92992,"freshness":"FRESH","line1":"1 59465U 24068L   26264.34031442  .00004156  00000+0  16060-3 0  9991","line2":"2 59465  43.0077   9.7130 0001380 269.9491  90.1203 15.27555582138444","mean_motion":15.27555582,"eccentricity":0.000138,"inclination_deg":43.0077,"raan_deg":9.713,"arg_perigee_deg":269.9491,"mean_anomaly_deg":90.1203,"bstar":0.0001606,"rev_number":13844,"period_min":94.268255569112,"perigee_km":482.17535951852,"apogee_km":484.06906706139,"semimajor_km":6861.25921329,"source":"CELESTRAK","updated_at":"2026-09-22T09:00:48.948502Z"}}